TimeEDT,TemperatureF,Dew PointF,Humidity,Sea Level PressureIn,VisibilityMPH,Wind Direction,Wind SpeedMPH,Gust SpeedMPH,PrecipitationIn,Events,Conditions,WindDirDegrees,DateUTC
12:54 AM,52.0,43.0,71,29.91,10.0,Variable,3.5,-,N/A,,Mostly Cloudy,0,2012-10-29 04:54:00
1:20 AM,51.8,42.8,71,29.89,10.0,North,4.6,-,N/A,,Overcast,360,2012-10-29 05:20:00
1:54 AM,53.1,44.1,71,29.89,10.0,Calm,Calm,-,N/A,,Overcast,0,2012-10-29 05:54:00
2:45 AM,51.8,42.8,71,29.85,10.0,North,4.6,-,N/A,,Scattered Clouds,10,2012-10-29 06:45:00
2:54 AM,51.1,43.0,74,29.86,10.0,North,4.6,-,N/A,,Scattered Clouds,350,2012-10-29 06:54:00
3:06 AM,51.8,42.8,71,29.85,10.0,Variable,3.5,-,N/A,,Mostly Cloudy,0,2012-10-29 07:06:00
3:17 AM,50.0,44.6,82,29.84,10.0,Calm,Calm,-,N/A,,Overcast,0,2012-10-29 07:17:00
3:39 AM,50.0,44.6,82,29.84,10.0,Calm,Calm,-,N/A,,Overcast,0,2012-10-29 07:39:00
3:54 AM,50.0,44.1,80,29.84,10.0,North,3.5,-,N/A,,Overcast,10,2012-10-29 07:54:00
4:54 AM,51.1,44.1,77,29.83,10.0,North,3.5,-,N/A,,Overcast,360,2012-10-29 08:54:00
5:54 AM,50.0,44.1,80,29.82,10.0,North,3.5,-,N/A,,Overcast,10,2012-10-29 09:54:00
6:54 AM,51.1,45.0,80,29.82,10.0,NNE,4.6,-,N/A,,Overcast,20,2012-10-29 10:54:00
7:54 AM,51.1,46.0,83,29.81,10.0,NE,4.6,-,N/A,,Overcast,40,2012-10-29 11:54:00
8:54 AM,53.1,46.9,80,29.80,10.0,NNE,5.8,-,N/A,,Overcast,20,2012-10-29 12:54:00
9:54 AM,54.0,46.9,77,29.78,10.0,North,6.9,-,N/A,,Overcast,10,2012-10-29 13:54:00
10:54 AM,55.0,46.9,74,29.76,10.0,NNE,8.1,-,N/A,,Overcast,20,2012-10-29 14:54:00
11:54 AM,57.0,48.0,72,29.73,10.0,North,9.2,-,N/A,,Overcast,360,2012-10-29 15:54:00
12:54 PM,59.0,48.0,67,29.69,10.0,NNE,9.2,19.6,N/A,,Overcast,30,2012-10-29 16:54:00
1:37 PM,57.2,48.2,72,29.67,10.0,NNE,12.7,19.6,N/A,,Overcast,30,2012-10-29 17:37:00
1:54 PM,57.9,50.0,75,29.66,10.0,NNE,10.4,21.9,N/A,,Overcast,30,2012-10-29 17:54:00
2:54 PM,60.1,50.0,69,29.63,10.0,North,6.9,-,N/A,,Overcast,10,2012-10-29 18:54:00
4:54 PM,62.1,46.0,56,29.57,10.0,NE,10.4,20.7,N/A,,Overcast,40,2012-10-29 20:54:00
5:54 PM,61.0,46.9,60,29.53,10.0,NE,15.0,24.2,N/A,,Overcast,40,2012-10-29 21:54:00
6:54 PM,61.0,48.0,62,29.49,10.0,ENE,17.3,27.6,0.00,Rain,Light Rain,60,2012-10-29 22:54:00
7:54 PM,60.1,51.1,72,29.47,10.0,East,8.1,25.3,0.00,Rain,Light Rain,80,2012-10-29 23:54:00
8:54 PM,59.0,52.0,78,29.44,9.0,Variable,6.9,20.7,0.00,Rain,Light Rain,0,2012-10-30 00:54:00
9:54 PM,59.0,53.1,81,29.43,6.0,NE,8.1,21.9,0.04,Rain,Rain,40,2012-10-30 01:54:00
10:54 PM,60.1,53.1,78,29.41,10.0,ENE,13.8,24.2,0.03,Rain,Light Rain,70,2012-10-30 02:54:00
11:54 PM,60.1,53.1,78,29.40,5.0,NE,16.1,31.1,0.04,Rain,Rain,40,2012-10-30 03:54:00